This demonstration page uses our WeatherBlox Daily Observations layout. Learn more.

Left ArrowRight Arrow

34.02893, -84.19858

Hourly Observations for February 9, 2017

Temp ( °F °C ) Dew Point ( °F °C ) Humidity (%) Winds ( mph kmh ) Pressure ( in mb ) Visibility ( mi km ) Precip ( " mm )
12:00 am 00:00 Cloudy with Nearby Thunderstorms 59 15 55 13 88 88 NW 20 31 29.68 1005 3 4 0.00 0.00
12:20 am 00:20 Cloudy 59 15 55 13 88 88 NW 12 19 29.68 1005 10 16 0.00 0.00
12:53 am 00:53 Mostly Clear 57 13.9 54 12.2 90 90 WNW 13 20 29.72 1006 10 16 0.03 0.76
1:53 am 01:53 Mostly Cloudy 56 13.3 52 11.1 87 87 WNW 17 28 29.75 1008 10 16 0.00 0.03
2:22 am 02:22 Cloudy 54 12 48 9 82 82 WNW 18 30 29.80 1009 10 16 0.00 0.00
2:53 am 02:53 Cloudy 51 10.6 45 7.2 80 80 WNW 21 33 29.82 1010 10 16 0.00 0.00
3:31 am 03:31 Cloudy 49 9.4 43 6.1 80 80 NW 20 31 29.85 1011 10 16 0.00 0.00
3:53 am 03:53 Cloudy 48 8.9 41 5 77 77 NW 22 35 29.85 1011 10 16 0.00 0.00
4:53 am 04:53 Cloudy 43 6.1 34 1.1 71 71 NW 28 44 29.92 1013 10 16 0.00 0.00
5:16 am 05:16 Cloudy 43 6 34 1 71 71 NW 24 39 29.97 1015 10 16 0.00 0.00
5:53 am 05:53 Cloudy 42 5.6 33 0.6 71 71 NW 23 37 29.98 1015 10 16 0.00 0.00
6:53 am 06:53 Cloudy 41 5 32 0 70 70 NW 20 31 30.04 1017 10 16 0.00 0.00
7:53 am 07:53 Mostly Cloudy 39 3.9 29 -1.7 67 67 NW 20 31 30.09 1019 10 16 0.00 0.00
8:29 am 08:29 Cloudy 39 3.9 29 -1.7 67 67 NW 16 26 30.12 1020 10 16 0.00 0.00
8:53 am 08:53 Partly Cloudy 39 3.9 28 -2.2 65 65 NW 16 26 30.12 1020 10 16 0.00 0.00
9:53 am 09:53 Mostly Sunny 41 5 28 -2.2 60 60 NW 16 26 30.14 1021 10 16 0.00 0.00
10:53 am 10:53 Sunny 42 5.6 29 -1.7 60 60 NNW 16 26 30.15 1021 10 16 0.00 0.00
11:53 am 11:53 Sunny 44 6.7 27 -2.8 51 51 WNW 20 31 30.16 1022 10 16 0.00 0.00
12:53 pm 12:53 Sunny 48 8.9 27 -2.8 44 44 NW 14 22 30.16 1021 10 16 0.00 0.00
1:53 pm 13:53 Sunny 47 8.3 25 -3.9 42 42 NW 26 43 30.17 1022 10 16 0.00 0.00
2:53 pm 14:53 Sunny 46 7.8 23 -5 40 40 NW 25 41 30.20 1023 10 16 0.00 0.00
3:53 pm 15:53 Sunny 46 7.8 22 -5.6 38 38 NW 18 30 30.21 1023 10 16 0.00 0.00
4:53 pm 16:53 Sunny 46 7.8 21 -6.1 37 37 NW 13 20 30.24 1024 10 16 0.00 0.00
5:53 pm 17:53 Sunny 44 6.7 21 -6.1 40 40 NW 12 19 30.28 1025 10 16 0.00 0.00
6:53 pm 18:53 Clear 42 5.6 19 -7.2 40 40 NW 14 22 30.31 1026 10 16 0.00 0.00
7:53 pm 19:53 Clear 41 5 18 -7.8 39 39 NW 13 20 30.34 1027 10 16 0.00 0.00
8:53 pm 20:53 Clear 39 3.9 19 -7.2 45 45 NW 12 19 30.35 1028 10 16 0.00 0.00
9:53 pm 21:53 Clear 37 2.8 19 -7.2 48 48 NNW 9 15 30.36 1028 10 16 0.00 0.00
10:53 pm 22:53 Clear 36 2.2 17 -8.3 46 46 NNW 12 19 30.37 1028 10 16 0.00 0.00
11:53 pm 23:53 Clear 35 1.7 17 -8.3 48 48 NW 13 20 30.37 1029 10 16 0.00 0.00

Powered by AerisWeather